Location: *
(49.6619°S, 177.4603°W)
Time: 05:03:46
(UTC+00:00)

Cosmos 1125 Rocket - Pass Details

Date: 31 January 2023
Orbit: 757 x 778 km, 74.0° (Epoch: 01 April)

Event Time Altitude Azimuth Distance (km) Brightness Sun altitude
Rises 10:27:30 0° 202° (SSW) 3,263 8.4 -19.7°
Reaches altitude 10° 10:29:57 10° 197° (SSW) 2,333 7.2 -19.8°
Maximum altitude 10:35:09 55° 119° (ESE) 930 3.9 -20.2°
Enters shadow 10:37:09 35° 59° (ENE) 1,239 4.2 -20.3°
